Time,TemperatureF,DewpointF,PressureIn,WindDirection,WindDirectionDegrees,WindSpeedMPH,WindSpeedGustMPH,Humidity,HourlyPrecipIn,Conditions,Clouds,dailyrainin,SoftwareType,DateUTC
2013-05-08 07:11:00,55.3,48.9,30.01,ENE,57,2.0,3.0,79,0.00,,,0.00,Wunderground v.1.15,2013-05-08 12:11:00,
2013-05-08 07:13:00,55.5,49.1,30.01,ENE,57,2.0,3.0,79,0.00,,,0.00,Wunderground v.1.15,2013-05-08 12:13:00,
2013-05-08 07:14:00,55.6,49.5,30.01,ENE,57,2.0,3.0,80,0.00,,,0.00,Wunderground v.1.15,2013-05-08 12:14:00,
2013-05-08 07:15:00,55.7,49.3,30.01,ENE,57,2.0,3.0,79,0.00,,,0.00,Wunderground v.1.15,2013-05-08 12:15:00,
2013-05-08 07:19:00,56.0,49.2,30.01,ENE,57,2.0,3.0,78,0.00,,,0.00,Wunderground v.1.15,2013-05-08 12:19:00,
2013-05-08 07:24:00,56.6,49.8,30.01,ENE,57,1.0,2.0,78,0.00,,,0.00,Wunderground v.1.15,2013-05-08 12:24:00,
2013-05-08 07:30:00,57.3,49.4,30.01,ENE,57,1.0,2.0,75,0.00,,,0.00,Wunderground v.1.15,2013-05-08 12:30:00,
2013-05-08 07:36:00,57.8,49.6,30.01,ENE,57,2.0,3.0,74,0.00,,,0.00,Wunderground v.1.15,2013-05-08 12:36:00,
2013-05-08 07:41:00,58.3,49.7,30.01,ENE,57,2.0,2.0,73,0.00,,,0.00,Wunderground v.1.15,2013-05-08 12:41:00,
2013-05-08 07:47:00,58.9,49.1,30.01,ENE,57,2.0,2.0,70,0.00,,,0.00,Wunderground v.1.15,2013-05-08 12:47:00,
2013-05-08 07:53:00,59.8,49.6,30.01,ENE,57,1.0,2.0,69,0.00,,,0.00,Wunderground v.1.15,2013-05-08 12:53:00,
2013-05-08 07:58:00,60.5,49.9,30.01,ENE,57,1.0,2.0,68,0.00,,,0.00,Wunderground v.1.15,2013-05-08 12:58:00,
2013-05-08 08:04:00,61.1,50.1,30.01,ENE,57,1.0,1.0,67,0.00,,,0.00,Wunderground v.1.15,2013-05-08 13:04:00,
2013-05-08 08:09:00,62.0,50.5,30.01,ENE,57,0.0,1.0,66,0.00,,,0.00,Wunderground v.1.15,2013-05-08 13:09:00,
2013-05-08 08:15:00,62.9,50.5,30.01,ENE,57,0.0,2.0,64,0.00,,,0.00,Wunderground v.1.15,2013-05-08 13:15:00,
2013-05-08 08:20:00,63.8,50.5,30.01,ENE,57,0.0,0.0,62,0.00,,,0.00,Wunderground v.1.15,2013-05-08 13:20:00,
2013-05-08 08:26:00,64.9,51.1,30.02,ENE,57,0.0,1.0,61,0.00,,,0.00,Wunderground v.1.15,2013-05-08 13:26:00,
2013-05-08 08:32:00,65.4,51.1,30.02,ENE,57,1.0,1.0,60,0.00,,,0.00,Wunderground v.1.15,2013-05-08 13:32:00,
2013-05-08 08:38:00,65.9,52.1,30.01,ENE,57,1.0,1.0,61,0.00,,,0.00,Wunderground v.1.15,2013-05-08 13:38:00,
2013-05-08 08:43:00,66.7,52.4,30.01,ENE,57,0.0,1.0,60,0.00,,,0.00,Wunderground v.1.15,2013-05-08 13:43:00,
2013-05-08 08:49:00,67.3,52.0,30.01,ENE,57,1.0,3.0,58,0.00,,,0.00,Wunderground v.1.15,2013-05-08 13:49:00,
2013-05-08 08:55:00,67.6,52.8,30.01,ENE,57,1.0,2.0,59,0.00,,,0.00,Wunderground v.1.15,2013-05-08 13:55:00,
2013-05-08 09:01:00,68.1,53.7,30.01,SSE,165,1.0,1.0,60,0.00,,,0.00,Wunderground v.1.15,2013-05-08 14:01:00,
2013-05-08 09:06:00,68.5,53.1,30.01,South,172,1.0,1.0,58,0.00,,,0.00,Wunderground v.1.15,2013-05-08 14:06:00,
2013-05-08 09:12:00,69.3,53.9,30.01,SSE,157,1.0,3.0,58,0.00,,,0.00,Wunderground v.1.15,2013-05-08 14:12:00,
2013-05-08 09:18:00,70.2,54.2,30.01,SSE,158,1.0,3.0,57,0.00,,,0.00,Wunderground v.1.15,2013-05-08 14:18:00,
2013-05-08 09:23:00,70.9,54.4,30.01,SSE,158,1.0,3.0,56,0.00,,,0.00,Wunderground v.1.15,2013-05-08 14:23:00,
2013-05-08 09:29:00,71.3,53.8,30.01,WSW,238,1.0,4.0,54,0.00,,,0.00,Wunderground v.1.15,2013-05-08 14:29:00,
2013-05-08 09:35:00,71.9,54.9,30.01,NW,306,1.0,1.0,55,0.00,,,0.00,Wunderground v.1.15,2013-05-08 14:35:00,
2013-05-08 09:41:00,72.3,54.2,30.01,West,259,1.0,2.0,53,0.00,,,0.00,Wunderground v.1.15,2013-05-08 14:41:00,
2013-05-08 09:47:00,72.9,56.8,30.01,NNW,333,1.0,2.0,57,0.00,,,0.00,Wunderground v.1.15,2013-05-08 14:47:00,
2013-05-08 09:52:00,73.4,53.6,30.01,WNW,303,1.0,3.0,50,0.00,,,0.00,Wunderground v.1.15,2013-05-08 14:52:00,
2013-05-08 09:58:00,73.8,53.4,30.01,West,281,1.0,3.0,49,0.00,,,0.00,Wunderground v.1.15,2013-05-08 14:58:00,
2013-05-08 10:04:00,74.0,52.5,30.01,West,269,1.0,5.0,47,0.00,,,0.00,Wunderground v.1.15,2013-05-08 15:04:00,
2013-05-08 10:10:00,74.3,53.3,30.01,WNW,303,1.0,1.0,48,0.00,,,0.00,Wunderground v.1.15,2013-05-08 15:10:00,
2013-05-08 10:15:00,74.8,53.8,30.00,West,280,0.0,1.0,48,0.00,,,0.00,Wunderground v.1.15,2013-05-08 15:15:00,
2013-05-08 10:21:00,75.0,53.4,30.00,WSW,248,1.0,1.0,47,0.00,,,0.00,Wunderground v.1.15,2013-05-08 15:21:00,
2013-05-08 10:26:00,75.1,53.5,30.00,NW,319,1.0,1.0,47,0.00,,,0.00,Wunderground v.1.15,2013-05-08 15:26:00,
2013-05-08 10:32:00,75.6,52.1,30.00,NNE,19,1.0,2.0,44,0.00,,,0.00,Wunderground v.1.15,2013-05-08 15:32:00,
2013-05-08 10:38:00,75.8,52.3,30.00,North,360,2.0,4.0,44,0.00,,,0.00,Wunderground v.1.15,2013-05-08 15:38:00,
2013-05-08 10:43:00,75.9,50.5,30.00,West,279,2.0,3.0,41,0.00,,,0.00,Wunderground v.1.15,2013-05-08 15:43:00,
2013-05-08 10:48:00,76.0,49.9,30.00,ENE,59,2.0,5.0,40,0.00,,,0.00,Wunderground v.1.15,2013-05-08 15:48:00,
2013-05-08 10:54:00,76.1,49.3,30.00,NNE,16,3.0,6.0,39,0.00,,,0.00,Wunderground v.1.15,2013-05-08 15:54:00,
2013-05-08 11:00:00,76.2,48.0,30.00,WNW,283,4.0,5.0,37,0.00,,,0.00,Wunderground v.1.15,2013-05-08 16:00:00,
2013-05-08 11:05:00,76.0,50.6,30.00,WNW,301,2.0,5.0,41,0.00,,,0.00,Wunderground v.1.15,2013-05-08 16:05:00,
2013-05-08 11:10:00,76.4,49.6,30.00,NNW,348,1.0,1.0,39,0.00,,,0.00,Wunderground v.1.15,2013-05-08 16:10:00,
2013-05-08 11:16:00,76.6,47.6,30.00,North,351,3.0,5.0,36,0.00,,,0.00,Wunderground v.1.15,2013-05-08 16:16:00,
2013-05-08 11:21:00,76.6,46.9,30.00,North,349,4.0,4.0,35,0.00,,,0.00,Wunderground v.1.15,2013-05-08 16:21:00,
2013-05-08 11:27:00,76.9,47.2,29.99,North,5,2.0,5.0,35,0.00,,,0.00,Wunderground v.1.15,2013-05-08 16:27:00,
2013-05-08 11:32:00,77.1,49.5,29.99,WSW,243,2.0,3.0,38,0.00,,,0.00,Wunderground v.1.15,2013-05-08 16:32:00,
2013-05-08 11:38:00,77.0,52.1,29.99,NNW,336,2.0,3.0,42,0.00,,,0.00,Wunderground v.1.15,2013-05-08 16:38:00,
2013-05-08 11:44:00,77.4,46.8,29.99,NNE,17,3.0,7.0,34,0.00,,,0.00,Wunderground v.1.15,2013-05-08 16:44:00,
2013-05-08 11:50:00,77.8,47.9,29.99,North,9,5.0,5.0,35,0.00,,,0.00,Wunderground v.1.15,2013-05-08 16:50:00,
2013-05-08 11:55:00,77.8,45.6,29.99,ENE,58,4.0,6.0,32,0.00,,,0.00,Wunderground v.1.15,2013-05-08 16:55:00,
2013-05-08 12:01:00,77.9,45.7,29.99,North,355,4.0,5.0,32,0.00,,,0.00,Wunderground v.1.15,2013-05-08 17:01:00,
2013-05-08 12:07:00,77.8,47.9,29.98,NNW,338,3.0,5.0,35,0.00,,,0.00,Wunderground v.1.15,2013-05-08 17:07:00,
2013-05-08 12:12:00,77.9,50.9,29.98,SSE,156,1.0,4.0,39,0.00,,,0.00,Wunderground v.1.15,2013-05-08 17:12:00,
2013-05-08 12:18:00,78.3,49.9,29.98,NW,313,1.0,4.0,37,0.00,,,0.00,Wunderground v.1.15,2013-05-08 17:18:00,
2013-05-08 12:24:00,78.3,46.8,29.97,North,360,3.0,11.0,33,0.00,,,0.00,Wunderground v.1.15,2013-05-08 17:24:00,
2013-05-08 12:30:00,78.2,45.9,29.98,West,280,5.0,5.0,32,0.00,,,0.00,Wunderground v.1.15,2013-05-08 17:30:00,
2013-05-08 12:35:00,78.2,46.7,29.97,NE,35,3.0,5.0,33,0.00,,,0.00,Wunderground v.1.15,2013-05-08 17:35:00,
2013-05-08 12:41:00,78.3,46.8,29.97,SSE,163,2.0,2.0,33,0.00,,,0.00,Wunderground v.1.15,2013-05-08 17:41:00,
2013-05-08 12:47:00,78.5,47.8,29.97,NNW,333,2.0,7.0,34,0.00,,,0.00,Wunderground v.1.15,2013-05-08 17:47:00,
2013-05-08 12:53:00,79.0,48.2,29.97,North,360,4.0,13.0,34,0.00,,,0.00,Wunderground v.1.15,2013-05-08 17:53:00,
2013-05-08 12:58:00,79.2,48.4,29.96,NNW,345,5.0,13.0,34,0.00,,,0.00,Wunderground v.1.15,2013-05-08 17:58:00,
2013-05-08 13:03:00,79.2,47.6,29.96,North,355,4.0,6.0,33,0.00,,,0.00,Wunderground v.1.15,2013-05-08 18:03:00,
2013-05-08 13:09:00,79.0,46.6,29.96,WSW,256,4.0,7.0,32,0.00,,,0.00,Wunderground v.1.15,2013-05-08 18:09:00,
2013-05-08 13:14:00,78.7,46.4,29.96,West,272,5.0,7.0,32,0.00,,,0.00,Wunderground v.1.15,2013-05-08 18:14:00,
2013-05-08 13:20:00,78.8,51.0,29.96,North,360,4.0,5.0,38,0.00,,,0.00,Wunderground v.1.15,2013-05-08 18:20:00,
2013-05-08 13:26:00,79.1,46.7,29.96,North,355,5.0,7.0,32,0.00,,,0.00,Wunderground v.1.15,2013-05-08 18:26:00,
2013-05-08 13:31:00,79.1,45.9,29.96,WNW,282,4.0,6.0,31,0.00,,,0.00,Wunderground v.1.15,2013-05-08 18:31:00,
2013-05-08 13:37:00,79.1,45.0,29.96,SW,221,2.0,6.0,30,0.00,,,0.00,Wunderground v.1.15,2013-05-08 18:37:00,
2013-05-08 13:42:00,79.3,46.0,29.95,SSE,165,2.0,4.0,31,0.00,,,0.00,Wunderground v.1.15,2013-05-08 18:42:00,
2013-05-08 13:48:00,79.5,48.7,29.95,WNW,286,3.0,5.0,34,0.00,,,0.00,Wunderground v.1.15,2013-05-08 18:48:00,
2013-05-08 13:53:00,80.0,47.5,29.95,North,350,4.0,7.0,32,0.00,,,0.00,Wunderground v.1.15,2013-05-08 18:53:00,
2013-05-08 13:59:00,79.8,44.7,29.95,North,349,6.0,10.0,29,0.00,,,0.00,Wunderground v.1.15,2013-05-08 18:59:00,
2013-05-08 14:05:00,79.8,44.7,29.95,NNE,21,3.0,6.0,29,0.00,,,0.00,Wunderground v.1.15,2013-05-08 19:05:00,
2013-05-08 14:11:00,80.1,44.0,29.95,North,5,2.0,2.0,28,0.00,,,0.00,Wunderground v.1.15,2013-05-08 19:11:00,
2013-05-08 14:17:00,80.2,45.1,29.95,NW,306,4.0,6.0,29,0.00,,,0.00,Wunderground v.1.15,2013-05-08 19:17:00,
2013-05-08 14:22:00,80.3,48.6,29.95,North,360,4.0,6.0,33,0.00,,,0.00,Wunderground v.1.15,2013-05-08 19:22:00,
2013-05-08 14:28:00,80.4,46.1,29.95,North,355,4.0,6.0,30,0.00,,,0.00,Wunderground v.1.15,2013-05-08 19:28:00,
2013-05-08 14:33:00,80.5,42.4,29.94,NNE,21,4.0,8.0,26,0.00,,,0.00,Wunderground v.1.15,2013-05-08 19:33:00,
2013-05-08 14:39:00,80.5,44.4,29.94,North,355,6.0,10.0,28,0.00,,,0.00,Wunderground v.1.15,2013-05-08 19:39:00,
2013-05-08 14:44:00,80.5,45.3,29.94,North,355,5.0,7.0,29,0.00,,,0.00,Wunderground v.1.15,2013-05-08 19:44:00,
2013-05-08 14:50:00,80.5,46.2,29.94,North,349,4.0,6.0,30,0.00,,,0.00,Wunderground v.1.15,2013-05-08 19:50:00,
2013-05-08 14:56:00,80.5,45.3,29.94,NNW,327,4.0,6.0,29,0.00,,,0.00,Wunderground v.1.15,2013-05-08 19:56:00,
2013-05-08 15:01:00,80.7,46.4,29.94,North,360,3.0,4.0,30,0.00,,,0.00,Wunderground v.1.15,2013-05-08 20:01:00,
2013-05-08 15:07:00,81.0,42.9,29.93,SSW,195,4.0,7.0,26,0.00,,,0.00,Wunderground v.1.15,2013-05-08 20:07:00,
2013-05-08 15:13:00,81.0,44.8,29.93,North,5,3.0,5.0,28,0.00,,,0.00,Wunderground v.1.15,2013-05-08 20:13:00,
2013-05-08 15:18:00,81.2,43.0,29.93,NE,43,3.0,6.0,26,0.00,,,0.00,Wunderground v.1.15,2013-05-08 20:18:00,
2013-05-08 15:24:00,81.4,46.1,29.93,North,355,3.0,5.0,29,0.00,,,0.00,Wunderground v.1.15,2013-05-08 20:24:00,
2013-05-08 15:30:00,81.5,45.2,29.93,West,275,4.0,4.0,28,0.00,,,0.00,Wunderground v.1.15,2013-05-08 20:30:00,
2013-05-08 15:36:00,81.4,43.2,29.92,NNE,32,5.0,8.0,26,0.00,,,0.00,Wunderground v.1.15,2013-05-08 20:36:00,
2013-05-08 15:41:00,81.1,41.9,29.92,SSE,150,4.0,5.0,25,0.00,,,0.00,Wunderground v.1.15,2013-05-08 20:41:00,
2013-05-08 15:47:00,81.1,43.0,29.92,NW,304,3.0,5.0,26,0.00,,,0.00,Wunderground v.1.15,2013-05-08 20:47:00,
2013-05-08 15:53:00,81.2,45.0,29.92,NNE,20,4.0,7.0,28,0.00,,,0.00,Wunderground v.1.15,2013-05-08 20:53:00,
2013-05-08 15:58:00,81.2,43.0,29.92,North,355,5.0,12.0,26,0.00,,,0.00,Wunderground v.1.15,2013-05-08 20:58:00,
2013-05-08 16:04:00,81.2,45.0,29.92,NNW,343,5.0,6.0,28,0.00,,,0.00,Wunderground v.1.15,2013-05-08 21:04:00,
2013-05-08 16:09:00,81.3,45.1,29.92,NW,311,3.0,6.0,28,0.00,,,0.00,Wunderground v.1.15,2013-05-08 21:09:00,
2013-05-08 16:15:00,81.1,44.9,29.92,North,360,2.0,3.0,28,0.00,,,0.00,Wunderground v.1.15,2013-05-08 21:15:00,
2013-05-08 16:20:00,80.9,43.8,29.92,NW,315,2.0,2.0,27,0.00,,,0.00,Wunderground v.1.15,2013-05-08 21:20:00,